Date,TemperatureHighF,TemperatureAvgF,TemperatureLowF,DewpointHighF,DewpointAvgF,DewpointLowF,HumidityHigh,HumidityAvg,HumidityLow,PressureMaxIn,PressureMinIn,WindSpeedMaxMPH,WindSpeedAvgMPH,GustSpeedMaxMPH,PrecipitationSumIn
2013-3-1,89.2,66.8,46.8,41.0,26.4,-3.0,75,34,3,30.26,30.09,9,1,14,0.00
2013-3-2,83.3,66.5,49.1,49.0,32.7,17.0,72,37,9,30.16,30.03,10,2,11,0.00
2013-3-3,69.7,60.1,54.5,54.0,51.8,46.0,87,75,43,30.07,29.95,8,2,13,0.00
2013-3-4,67.4,59.7,53.1,53.0,51.0,49.0,87,74,56,30.07,29.99,10,2,11,0.00
2013-3-5,65.1,58.1,52.1,52.0,50.3,47.0,88,76,61,30.10,30.01,9,1,10,0.00
2013-3-6,64.6,58.2,48.6,50.0,44.9,41.0,81,62,44,30.13,29.99,8,2,13,0.00
2013-3-7,62.6,58.1,55.1,52.0,50.0,47.0,85,75,61,29.99,29.82,11,2,13,0.00
2013-3-8,59.6,54.5,48.6,49.0,45.5,40.0,89,73,48,29.99,29.77,10,3,15,0.94
2013-3-9,65.3,56.6,47.3,50.0,45.3,36.0,87,68,36,30.18,29.98,10,2,11,0.00
2013-3-10,75.4,59.7,44.4,50.0,42.0,29.0,89,59,20,30.23,30.11,11,2,12,0.00
2013-3-11,73.9,59.7,44.6,51.0,45.5,39.0,88,63,31,30.15,30.00,6,1,9,0.00
2013-3-12,79.1,60.5,46.6,54.0,48.8,42.0,92,70,28,30.05,29.96,6,1,8,0.00
2013-3-13,81.2,62.0,48.5,56.0,50.2,42.0,91,69,25,30.08,29.98,6,1,10,0.00
2013-3-14,79.3,61.6,53.1,59.0,51.9,48.0,92,74,39,30.06,29.97,6,1,10,0.00
2013-3-15,66.3,59.4,54.8,56.0,53.6,52.0,91,81,65,30.01,29.91,5,2,10,0.00
2013-3-16,65.4,58.1,53.6,54.0,51.6,50.0,91,79,63,29.95,29.86,8,2,10,0.00
2013-3-17,67.7,60.2,55.0,53.0,51.6,50.0,85,74,56,29.98,29.91,7,2,10,0.00
2013-3-18,66.6,60.4,55.2,53.0,51.1,49.0,82,72,58,30.05,29.95,10,2,10,0.00
2013-3-19,67.7,59.0,51.6,54.0,51.7,48.0,89,77,62,30.09,30.01,9,1,10,0.00
2013-3-20,73.0,61.1,52.5,56.0,51.6,48.0,90,73,45,30.06,29.92,7,1,12,0.00
2013-3-21,70.8,61.9,54.5,56.0,53.0,50.0,89,74,49,29.92,29.77,8,2,10,0.00
2013-3-22,70.4,61.2,54.1,55.0,52.6,47.0,89,75,43,29.88,29.78,7,2,11,0.00
2013-3-23,69.8,62.0,55.1,54.0,52.5,50.0,86,72,56,29.98,29.88,10,2,11,0.00
2013-3-24,74.6,63.3,55.3,55.0,52.9,49.0,88,71,47,29.99,29.86,11,2,11,0.00
2013-3-25,73.8,61.2,54.5,57.0,53.9,50.0,91,78,47,29.95,29.85,7,1,8,0.00
2013-3-26,69.5,61.6,55.7,55.0,53.3,52.0,90,75,58,29.94,29.86,8,1,11,0.00
2013-3-27,67.8,61.4,56.1,54.0,52.1,51.0,84,72,58,30.01,29.90,9,1,12,0.00
2013-3-28,73.4,62.7,54.4,56.0,53.5,50.0,88,73,51,30.04,29.97,8,2,12,0.00
2013-3-29,73.5,62.1,55.6,57.0,54.8,52.0,88,78,54,30.08,30.00,9,2,11,0.00
2013-3-30,71.1,62.1,57.5,57.0,53.8,49.0,86,75,54,30.10,30.02,7,2,11,0.00
2013-3-31,70.3,63.0,57.1,58.0,55.0,53.0,86,76,61,30.10,30.02,11,3,14,0.00